Time,TemperatureF,DewpointF,PressureIn,WindDirection,WindDirectionDegrees,WindSpeedMPH,WindSpeedGustMPH,Humidity,HourlyPrecipIn,Conditions,Clouds,dailyrainin,SoftwareType,DateUTC
2013-02-22 00:00:00,31.5,5.0,30.12,East,82,0.0,0.0,32,0.00,,---,0.00,VWS V14.01,2013-02-22 05:00:00,
2013-02-22 00:05:00,31.5,5.0,30.12,SSE,162,2.7,2.7,32,0.00,,---,0.00,VWS V14.01,2013-02-22 05:05:00,
2013-02-22 00:10:00,31.3,4.9,30.12,SW,229,0.0,2.2,32,0.00,,---,0.00,VWS V14.01,2013-02-22 05:10:00,
2013-02-22 00:15:00,31.3,4.9,30.12,SW,229,0.0,0.0,32,0.00,,---,0.00,VWS V14.01,2013-02-22 05:15:00,
2013-02-22 00:20:00,31.3,5.5,30.12,SW,229,0.0,0.0,33,0.00,,---,0.00,VWS V14.01,2013-02-22 05:20:00,
2013-02-22 00:25:00,31.3,5.5,30.15,SW,227,0.0,0.0,33,0.00,,---,0.00,VWS V14.01,2013-02-22 05:25:00,
2013-02-22 00:30:00,31.3,4.9,30.15,West,260,4.0,4.0,32,0.00,,---,0.00,VWS V14.01,2013-02-22 05:30:00,
2013-02-22 00:35:00,31.3,4.9,30.15,WSW,246,2.7,3.6,32,0.00,,---,0.00,VWS V14.01,2013-02-22 05:35:00,
2013-02-22 00:40:00,31.3,4.9,30.15,NE,35,0.0,0.0,32,0.00,,---,0.00,VWS V14.01,2013-02-22 05:40:00,
2013-02-22 00:46:00,31.5,5.0,30.15,NNW,340,3.1,3.1,32,0.00,,---,0.00,VWS V14.01,2013-02-22 05:46:00,
2013-02-22 00:51:00,31.5,5.0,30.15,NW,304,0.0,0.0,32,0.00,,---,0.00,VWS V14.01,2013-02-22 05:51:00,
2013-02-22 00:56:00,31.3,4.9,30.15,WNW,299,0.0,0.0,32,0.00,,---,0.00,VWS V14.01,2013-02-22 05:56:00,
2013-02-22 01:01:00,31.3,4.9,30.15,WNW,299,0.0,0.0,32,0.00,,---,0.00,VWS V14.01,2013-02-22 06:01:00,
2013-02-22 01:06:00,31.3,4.9,30.15,West,264,0.0,0.0,32,0.00,,---,0.00,VWS V14.01,2013-02-22 06:06:00,
2013-02-22 01:11:00,31.3,4.9,30.15,NW,308,2.2,3.1,32,0.00,,---,0.00,VWS V14.01,2013-02-22 06:11:00,
2013-02-22 01:16:00,31.1,4.7,30.15,West,273,3.1,3.1,32,0.00,,---,0.00,VWS V14.01,2013-02-22 06:16:00,
2013-02-22 01:21:00,31.1,4.7,30.15,West,265,2.2,2.2,32,0.00,,---,0.00,VWS V14.01,2013-02-22 06:21:00,
2013-02-22 01:26:00,31.1,4.7,30.15,North,8,2.7,4.0,32,0.00,,---,0.00,VWS V14.01,2013-02-22 06:26:00,
2013-02-22 01:31:00,31.1,4.7,30.15,WSW,254,0.0,0.0,32,0.00,,---,0.00,VWS V14.01,2013-02-22 06:31:00,
2013-02-22 01:36:00,30.9,4.5,30.15,WSW,254,0.0,0.0,32,0.00,,---,0.00,VWS V14.01,2013-02-22 06:36:00,
2013-02-22 01:41:00,30.7,4.4,30.15,WSW,254,0.0,0.0,32,0.00,,---,0.00,VWS V14.01,2013-02-22 06:41:00,
2013-02-22 01:46:00,30.7,4.4,30.15,ENE,63,2.7,2.7,32,0.00,,---,0.00,VWS V14.01,2013-02-22 06:46:00,
2013-02-22 01:51:00,30.7,4.4,30.15,WNW,297,0.0,0.0,32,0.00,,---,0.00,VWS V14.01,2013-02-22 06:51:00,
2013-02-22 01:56:00,30.6,4.2,30.15,SW,220,0.0,0.0,32,0.00,,---,0.00,VWS V14.01,2013-02-22 06:56:00,
2013-02-22 02:01:00,30.6,4.2,30.15,NNE,30,0.0,0.0,32,0.00,,---,0.00,VWS V14.01,2013-02-22 07:01:00,
2013-02-22 02:06:00,30.7,5.1,30.15,NE,47,0.0,0.0,33,0.00,,---,0.00,VWS V14.01,2013-02-22 07:06:00,
2013-02-22 02:11:00,30.9,4.5,30.12,West,280,3.1,3.1,32,0.00,,---,0.00,VWS V14.01,2013-02-22 07:11:00,
2013-02-22 02:16:00,31.3,4.9,30.12,NW,316,2.7,3.6,32,0.00,,---,0.00,VWS V14.01,2013-02-22 07:16:00,
2013-02-22 02:21:00,31.5,5.0,30.12,WNW,298,2.7,4.0,32,0.00,,---,0.00,VWS V14.01,2013-02-22 07:21:00,
2013-02-22 02:26:00,31.3,4.9,30.15,WSW,247,3.1,3.1,32,0.00,,---,0.00,VWS V14.01,2013-02-22 07:26:00,
2013-02-22 02:31:00,31.1,4.0,30.15,West,265,3.1,4.0,31,0.00,,---,0.00,VWS V14.01,2013-02-22 07:31:00,
2013-02-22 02:36:00,31.1,4.0,30.15,South,186,3.1,3.1,31,0.00,,---,0.00,VWS V14.01,2013-02-22 07:36:00,
2013-02-22 02:41:00,31.1,4.0,30.15,WNW,287,3.1,4.0,31,0.00,,---,0.00,VWS V14.01,2013-02-22 07:41:00,
2013-02-22 02:46:00,31.1,4.0,30.15,NW,317,0.0,2.7,31,0.00,,---,0.00,VWS V14.01,2013-02-22 07:46:00,
2013-02-22 02:51:00,31.1,4.0,30.15,NNW,334,2.7,2.7,31,0.00,,---,0.00,VWS V14.01,2013-02-22 07:51:00,
2013-02-22 02:56:00,31.1,4.0,30.15,NNE,27,2.2,2.2,31,0.00,,---,0.00,VWS V14.01,2013-02-22 07:56:00,
2013-02-22 03:01:00,31.1,4.0,30.15,NNE,15,0.0,0.0,31,0.00,,---,0.00,VWS V14.01,2013-02-22 08:01:00,
2013-02-22 03:06:00,30.9,3.8,30.15,NNE,14,2.2,2.2,31,0.00,,---,0.00,VWS V14.01,2013-02-22 08:06:00,
2013-02-22 03:11:00,30.9,4.5,30.15,North,7,0.0,0.0,32,0.00,,---,0.00,VWS V14.01,2013-02-22 08:11:00,
2013-02-22 03:16:00,31.1,4.7,30.15,North,353,2.2,3.1,32,0.00,,---,0.00,VWS V14.01,2013-02-22 08:16:00,
2013-02-22 03:21:00,31.1,4.7,30.15,NE,38,2.2,3.6,32,0.00,,---,0.00,VWS V14.01,2013-02-22 08:21:00,
2013-02-22 03:26:00,31.1,4.7,30.09,NNE,27,3.6,3.6,32,0.00,,---,0.00,VWS V14.01,2013-02-22 08:26:00,
2013-02-22 03:31:00,31.1,4.7,30.09,North,353,3.6,5.4,32,0.00,,---,0.00,VWS V14.01,2013-02-22 08:31:00,
2013-02-22 03:36:00,30.9,4.5,30.09,NE,34,3.1,3.1,32,0.00,,---,0.00,VWS V14.01,2013-02-22 08:36:00,
2013-02-22 03:41:00,30.9,4.5,30.09,WSW,248,4.0,4.9,32,0.00,,---,0.00,VWS V14.01,2013-02-22 08:41:00,
2013-02-22 03:46:00,30.6,4.2,30.09,North,11,3.6,3.6,32,0.00,,---,0.00,VWS V14.01,2013-02-22 08:46:00,
2013-02-22 03:51:00,30.4,4.1,30.09,NNE,25,2.7,5.8,32,0.00,,---,0.00,VWS V14.01,2013-02-22 08:51:00,
2013-02-22 03:56:00,30.2,4.6,30.09,WSW,247,4.0,4.0,33,0.00,,---,0.00,VWS V14.01,2013-02-22 08:56:00,
2013-02-22 04:01:00,30.2,3.9,30.09,WSW,253,0.0,0.0,32,0.00,,---,0.00,VWS V14.01,2013-02-22 09:01:00,
2013-02-22 04:07:00,30.2,4.6,30.09,NNE,30,2.2,2.7,33,0.00,,---,0.00,VWS V14.01,2013-02-22 09:07:00,
2013-02-22 04:12:00,30.2,3.9,30.09,WNW,294,4.0,4.9,32,0.00,,---,0.00,VWS V14.01,2013-02-22 09:12:00,
2013-02-22 04:17:00,30.2,4.6,30.09,West,265,3.6,3.6,33,0.00,,---,0.00,VWS V14.01,2013-02-22 09:17:00,
2013-02-22 04:22:00,30.4,4.1,30.09,WNW,287,2.7,3.1,32,0.00,,---,0.00,VWS V14.01,2013-02-22 09:22:00,
2013-02-22 04:27:00,30.4,4.1,30.09,WNW,286,0.0,0.0,32,0.00,,---,0.00,VWS V14.01,2013-02-22 09:27:00,
2013-02-22 04:32:00,30.4,4.1,30.09,West,275,6.3,7.2,32,0.00,,---,0.00,VWS V14.01,2013-02-22 09:32:00,
2013-02-22 04:37:00,30.4,4.1,30.09,West,275,4.0,5.4,32,0.00,,---,0.00,VWS V14.01,2013-02-22 09:37:00,
2013-02-22 04:42:00,30.2,4.6,30.09,SW,235,8.3,9.2,33,0.00,,---,0.00,VWS V14.01,2013-02-22 09:42:00,
2013-02-22 04:47:00,30.0,4.4,30.09,SSW,198,3.1,4.9,33,0.00,,---,0.00,VWS V14.01,2013-02-22 09:47:00,
2013-02-22 04:52:00,30.0,4.4,30.09,NW,310,3.1,3.6,33,0.00,,---,0.00,VWS V14.01,2013-02-22 09:52:00,
2013-02-22 04:57:00,29.7,4.7,30.09,NW,324,5.8,6.3,34,0.00,,---,0.00,VWS V14.01,2013-02-22 09:57:00,
2013-02-22 05:02:00,29.5,5.2,30.09,East,93,6.3,6.3,35,0.00,,---,0.00,VWS V14.01,2013-02-22 10:02:00,
2013-02-22 05:07:00,29.1,6.1,30.09,NW,311,2.2,2.2,37,0.00,,---,0.00,VWS V14.01,2013-02-22 10:07:00,
2013-02-22 05:12:00,28.8,7.5,30.09,WSW,246,3.1,5.8,40,0.00,,---,0.00,VWS V14.01,2013-02-22 10:12:00,
2013-02-22 05:17:00,28.6,7.9,30.09,West,259,3.1,3.1,41,0.00,,---,0.00,VWS V14.01,2013-02-22 10:17:00,
2013-02-22 05:22:00,28.6,7.9,30.09,NE,47,2.7,2.7,41,0.00,,---,0.00,VWS V14.01,2013-02-22 10:22:00,
2013-02-22 05:27:00,28.6,7.9,30.09,NW,306,4.9,4.9,41,0.00,,---,0.00,VWS V14.01,2013-02-22 10:27:00,
2013-02-22 05:32:00,28.4,8.2,30.09,NW,322,3.6,4.0,42,0.00,,---,0.00,VWS V14.01,2013-02-22 10:32:00,
2013-02-22 05:37:00,28.4,8.2,30.09,NNW,331,0.0,0.0,42,0.00,,---,0.00,VWS V14.01,2013-02-22 10:37:00,
2013-02-22 05:42:00,28.2,8.1,30.09,North,6,0.0,0.0,42,0.00,,---,0.00,VWS V14.01,2013-02-22 10:42:00,
2013-02-22 05:48:00,28.2,8.1,30.09,NE,38,2.7,4.0,42,0.00,,---,0.00,VWS V14.01,2013-02-22 10:48:00,
2013-02-22 05:53:00,28.0,8.4,30.09,NNE,15,0.0,0.0,43,0.00,,---,0.00,VWS V14.01,2013-02-22 10:53:00,
2013-02-22 05:58:00,27.9,8.3,30.09,North,5,0.0,0.0,43,0.00,,---,0.00,VWS V14.01,2013-02-22 10:58:00,
2013-02-22 06:03:00,27.7,9.1,30.09,NNW,344,3.6,4.0,45,0.00,,---,0.00,VWS V14.01,2013-02-22 11:03:00,
2013-02-22 06:08:00,27.5,9.0,30.09,West,270,3.6,3.6,45,0.00,,---,0.00,VWS V14.01,2013-02-22 11:08:00,
2013-02-22 06:13:00,27.3,9.8,30.09,WSW,249,2.7,2.7,47,0.00,,---,0.00,VWS V14.01,2013-02-22 11:13:00,
2013-02-22 06:18:00,27.3,10.2,30.09,WSW,257,2.2,2.2,48,0.00,,---,0.00,VWS V14.01,2013-02-22 11:18:00,
2013-02-22 06:23:00,27.3,10.7,30.09,WNW,292,2.7,3.1,49,0.00,,---,0.00,VWS V14.01,2013-02-22 11:23:00,
2013-02-22 06:28:00,27.3,11.1,30.09,NE,44,2.7,2.7,50,0.00,,---,0.00,VWS V14.01,2013-02-22 11:28:00,
2013-02-22 06:33:00,27.1,10.1,30.09,NE,48,2.7,2.7,48,0.00,,---,0.00,VWS V14.01,2013-02-22 11:33:00,
2013-02-22 06:38:00,27.1,11.0,30.09,WSW,256,3.6,4.9,50,0.00,,---,0.00,VWS V14.01,2013-02-22 11:38:00,
2013-02-22 06:43:00,27.0,10.8,30.09,WSW,249,7.2,7.2,50,0.00,,---,0.00,VWS V14.01,2013-02-22 11:43:00,
2013-02-22 06:48:00,27.0,11.3,30.09,WNW,289,2.7,3.6,51,0.00,,---,0.00,VWS V14.01,2013-02-22 11:48:00,
2013-02-22 06:53:00,26.8,11.1,30.09,West,266,0.0,0.0,51,0.00,,---,0.00,VWS V14.01,2013-02-22 11:53:00,
2013-02-22 06:58:00,26.8,11.5,30.09,WSW,256,0.0,0.0,52,0.00,,---,0.00,VWS V14.01,2013-02-22 11:58:00,
2013-02-22 07:03:00,26.8,12.0,30.09,NW,306,0.0,2.2,53,0.00,,---,0.00,VWS V14.01,2013-02-22 12:03:00,
2013-02-22 07:08:00,26.6,11.8,30.09,NNE,12,4.0,4.0,53,0.00,,---,0.00,VWS V14.01,2013-02-22 12:08:00,
2013-02-22 07:13:00,26.6,11.8,30.09,WNW,302,4.0,4.0,53,0.00,,---,0.00,VWS V14.01,2013-02-22 12:13:00,
2013-02-22 07:18:00,26.6,12.6,30.09,SW,234,3.6,6.3,55,0.00,,---,0.00,VWS V14.01,2013-02-22 12:18:00,
2013-02-22 07:23:00,26.4,12.5,30.09,West,269,0.0,0.0,55,0.00,,---,0.00,VWS V14.01,2013-02-22 12:23:00,
2013-02-22 07:29:00,26.2,12.3,30.09,West,270,0.0,0.0,55,0.00,,---,0.00,VWS V14.01,2013-02-22 12:29:00,
2013-02-22 07:34:00,26.2,12.7,30.09,North,357,0.0,0.0,56,0.00,,---,0.00,VWS V14.01,2013-02-22 12:34:00,
2013-02-22 07:39:00,26.2,13.5,30.09,WNW,284,2.7,4.0,58,0.00,,---,0.00,VWS V14.01,2013-02-22 12:39:00,
2013-02-22 07:44:00,26.4,13.7,30.09,West,275,4.5,4.9,58,0.00,,---,0.00,VWS V14.01,2013-02-22 12:44:00,
2013-02-22 07:49:00,26.2,13.5,30.09,West,267,0.0,0.0,58,0.00,,---,0.00,VWS V14.01,2013-02-22 12:49:00,
2013-02-22 07:54:00,26.2,13.5,30.09,NW,315,0.0,0.0,58,0.00,,---,0.00,VWS V14.01,2013-02-22 12:54:00,
2013-02-22 07:59:00,26.4,13.7,30.09,WNW,291,2.7,3.6,58,0.00,,---,0.00,VWS V14.01,2013-02-22 12:59:00,
2013-02-22 08:04:00,26.4,13.7,30.09,North,357,5.4,5.4,58,0.00,,---,0.00,VWS V14.01,2013-02-22 13:04:00,
2013-02-22 08:09:00,26.6,14.2,30.09,NW,314,2.7,2.7,59,0.00,,---,0.00,VWS V14.01,2013-02-22 13:09:00,
2013-02-22 08:14:00,26.6,14.2,30.09,West,278,3.1,3.1,59,0.00,,---,0.00,VWS V14.01,2013-02-22 13:14:00,
2013-02-22 08:19:00,26.6,14.2,30.09,WNW,301,4.9,4.9,59,0.00,,---,0.00,VWS V14.01,2013-02-22 13:19:00,
2013-02-22 08:24:00,26.6,14.2,30.09,WNW,300,2.7,3.6,59,0.00,,---,0.00,VWS V14.01,2013-02-22 13:24:00,
2013-02-22 08:29:00,26.6,14.2,30.12,NNE,31,0.0,0.0,59,0.00,,---,0.00,VWS V14.01,2013-02-22 13:29:00,
2013-02-22 08:34:00,26.8,14.4,30.12,WNW,285,2.7,5.8,59,0.00,,---,0.00,VWS V14.01,2013-02-22 13:34:00,
2013-02-22 08:39:00,26.6,14.2,30.12,NW,304,4.0,4.0,59,0.00,,---,0.00,VWS V14.01,2013-02-22 13:39:00,
2013-02-22 08:44:00,26.8,14.4,30.09,West,281,2.2,2.2,59,0.00,,---,0.00,VWS V14.01,2013-02-22 13:44:00,
2013-02-22 08:49:00,26.8,14.4,30.09,NW,304,0.0,2.2,59,0.00,,---,0.00,VWS V14.01,2013-02-22 13:49:00,
2013-02-22 08:54:00,26.8,14.4,30.09,WSW,242,3.1,5.8,59,0.00,,---,0.00,VWS V14.01,2013-02-22 13:54:00,
2013-02-22 08:59:00,26.6,14.2,30.12,WNW,287,3.6,5.8,59,0.00,,---,0.00,VWS V14.01,2013-02-22 13:59:00,
2013-02-22 09:04:00,26.6,14.2,30.12,SSE,152,4.9,4.9,59,0.00,,---,0.00,VWS V14.01,2013-02-22 14:04:00,
2013-02-22 09:09:00,26.8,14.0,30.12,WSW,253,6.3,6.3,58,0.00,,---,0.00,VWS V14.01,2013-02-22 14:09:00,
2013-02-22 09:15:00,26.8,14.0,30.12,West,270,5.4,5.4,58,0.00,,---,0.00,VWS V14.01,2013-02-22 14:15:00,
2013-02-22 09:20:00,26.8,14.0,30.12,NW,316,2.2,3.6,58,0.00,,---,0.00,VWS V14.01,2013-02-22 14:20:00,
2013-02-22 09:25:00,26.8,14.4,30.12,WSW,239,3.6,3.6,59,0.00,,---,0.00,VWS V14.01,2013-02-22 14:25:00,
2013-02-22 09:30:00,26.8,14.8,30.12,WSW,243,5.4,5.8,60,0.00,,---,0.00,VWS V14.01,2013-02-22 14:30:00,
2013-02-22 09:35:00,26.8,14.8,30.12,West,263,0.0,2.2,60,0.00,,---,0.00,VWS V14.01,2013-02-22 14:35:00,
2013-02-22 09:40:00,26.8,14.4,30.12,West,264,0.0,0.0,59,0.00,,---,0.00,VWS V14.01,2013-02-22 14:40:00,
2013-02-22 09:45:00,26.8,14.8,30.12,North,6,2.7,3.6,60,0.00,,---,0.00,VWS V14.01,2013-02-22 14:45:00,
2013-02-22 09:50:00,26.8,14.8,30.12,WNW,299,2.2,4.0,60,0.00,,---,0.00,VWS V14.01,2013-02-22 14:50:00,
2013-02-22 09:55:00,26.8,14.8,30.12,NNE,21,0.0,0.0,60,0.00,,---,0.00,VWS V14.01,2013-02-22 14:55:00,
2013-02-22 10:00:00,27.0,15.3,30.09,SSW,199,3.6,4.0,61,0.00,,---,0.00,VWS V14.01,2013-02-22 15:00:00,
2013-02-22 10:05:00,27.0,15.7,30.09,WSW,242,5.4,8.1,62,0.00,,---,0.00,VWS V14.01,2013-02-22 15:05:00,
2013-02-22 10:10:00,26.8,15.5,30.09,NW,326,4.9,4.9,62,0.00,,---,0.00,VWS V14.01,2013-02-22 15:10:00,
2013-02-22 10:15:00,26.8,15.9,30.09,West,263,3.6,5.4,63,0.00,,---,0.00,VWS V14.01,2013-02-22 15:15:00,
2013-02-22 10:20:00,27.0,16.4,30.09,West,265,2.7,3.6,64,0.00,,---,0.00,VWS V14.01,2013-02-22 15:20:00,
2013-02-22 10:25:00,27.0,16.1,30.09,WSW,245,4.0,4.0,63,0.00,,---,0.00,VWS V14.01,2013-02-22 15:25:00,
2013-02-22 10:30:00,27.0,15.7,30.09,WSW,249,3.6,4.0,62,0.00,,---,0.00,VWS V14.01,2013-02-22 15:30:00,
2013-02-22 10:35:00,27.1,15.9,30.09,WSW,241,3.1,4.9,62,0.00,,---,0.00,VWS V14.01,2013-02-22 15:35:00,
2013-02-22 10:40:00,27.3,15.7,30.09,WNW,283,2.7,2.7,61,0.00,,---,0.00,VWS V14.01,2013-02-22 15:40:00,
2013-02-22 10:45:00,27.5,15.8,30.09,SW,220,4.0,4.0,61,0.00,,---,0.00,VWS V14.01,2013-02-22 15:45:00,
2013-02-22 10:50:00,27.5,16.6,30.09,SW,228,3.1,4.0,63,0.00,,---,0.00,VWS V14.01,2013-02-22 15:50:00,
2013-02-22 10:55:00,27.7,17.1,30.09,SW,228,2.2,3.1,64,0.00,,---,0.00,VWS V14.01,2013-02-22 15:55:00,
2013-02-22 11:00:00,27.7,17.5,30.09,SSW,213,3.6,4.0,65,0.00,,---,0.00,VWS V14.01,2013-02-22 16:00:00,
2013-02-22 11:06:00,27.7,17.5,30.09,SW,216,3.6,3.6,65,0.00,,---,0.00,VWS V14.01,2013-02-22 16:06:00,
2013-02-22 11:11:00,27.9,18.0,30.09,SSW,205,0.0,2.7,66,0.00,,---,0.00,VWS V14.01,2013-02-22 16:11:00,
2013-02-22 11:16:00,27.9,18.0,30.09,SSW,205,0.0,0.0,66,0.00,,---,0.00,VWS V14.01,2013-02-22 16:16:00,
2013-02-22 11:21:00,27.9,18.0,30.09,WSW,242,2.7,2.7,66,0.00,,---,0.00,VWS V14.01,2013-02-22 16:21:00,
2013-02-22 11:26:00,27.9,17.6,30.09,SW,224,0.0,0.0,65,0.00,,---,0.00,VWS V14.01,2013-02-22 16:26:00,
2013-02-22 11:31:00,27.9,17.6,30.09,SW,224,0.0,0.0,65,0.00,,---,0.00,VWS V14.01,2013-02-22 16:31:00,
2013-02-22 11:36:00,28.0,17.8,30.09,WSW,239,0.0,3.6,65,0.00,,---,0.00,VWS V14.01,2013-02-22 16:36:00,
2013-02-22 11:41:00,28.2,18.0,30.09,WSW,239,0.0,3.1,65,0.00,,---,0.00,VWS V14.01,2013-02-22 16:41:00,
2013-02-22 11:46:00,28.4,17.8,30.09,SW,236,0.0,0.0,64,0.00,,---,0.00,VWS V14.01,2013-02-22 16:46:00,
2013-02-22 11:51:00,28.4,17.8,30.09,SW,236,0.0,0.0,64,0.00,,---,0.00,VWS V14.01,2013-02-22 16:51:00,
2013-02-22 11:56:00,28.6,17.6,30.09,SW,236,0.0,0.0,63,0.00,,---,0.00,VWS V14.01,2013-02-22 16:56:00,
2013-02-22 12:01:00,28.9,17.9,30.09,SSW,204,3.1,3.6,63,0.00,,---,0.00,VWS V14.01,2013-02-22 17:01:00,
2013-02-22 12:06:00,29.1,18.1,30.09,SW,214,3.6,4.0,63,0.00,,---,0.00,VWS V14.01,2013-02-22 17:06:00,
2013-02-22 12:11:00,29.1,17.4,30.09,SSW,207,4.0,4.0,61,0.00,,---,0.00,VWS V14.01,2013-02-22 17:11:00,
2013-02-22 12:16:00,29.1,17.4,30.09,SW,219,2.7,2.7,61,0.00,,---,0.00,VWS V14.01,2013-02-22 17:16:00,
2013-02-22 12:21:00,29.1,17.4,30.09,SW,235,2.7,3.6,61,0.00,,---,0.00,VWS V14.01,2013-02-22 17:21:00,
2013-02-22 12:26:00,29.1,17.0,30.09,SW,236,0.0,0.0,60,0.00,,---,0.00,VWS V14.01,2013-02-22 17:26:00,
2013-02-22 12:31:00,29.1,17.0,30.09,SW,232,0.0,0.0,60,0.00,,---,0.00,VWS V14.01,2013-02-22 17:31:00,
2013-02-22 12:36:00,29.5,17.3,30.09,SSW,203,2.2,2.7,60,0.00,,---,0.00,VWS V14.01,2013-02-22 17:36:00,
2013-02-22 12:41:00,29.5,17.3,30.09,SSW,203,0.0,0.0,60,0.00,,---,0.00,VWS V14.01,2013-02-22 17:41:00,
2013-02-22 12:46:00,29.8,17.7,30.09,SSW,213,2.7,2.7,60,0.00,,---,0.00,VWS V14.01,2013-02-22 17:46:00,
2013-02-22 12:51:00,29.7,17.1,30.09,SW,231,2.7,3.1,59,0.00,,---,0.00,VWS V14.01,2013-02-22 17:51:00,
2013-02-22 12:56:00,29.8,17.7,30.06,SW,231,0.0,0.0,60,0.00,,---,0.00,VWS V14.01,2013-02-22 17:56:00,
2013-02-22 13:01:00,29.8,17.3,30.06,SW,216,2.7,3.6,59,0.00,,---,0.00,VWS V14.01,2013-02-22 18:01:00,
2013-02-22 13:06:00,29.8,17.3,30.06,SW,217,4.0,4.0,59,0.00,,---,0.00,VWS V14.01,2013-02-22 18:06:00,
2013-02-22 13:11:00,30.0,17.4,30.06,SW,217,0.0,0.0,59,0.00,,---,0.00,VWS V14.01,2013-02-22 18:11:00,
2013-02-22 13:16:00,30.2,17.6,30.06,West,265,0.0,0.0,59,0.00,,---,0.00,VWS V14.01,2013-02-22 18:16:00,
2013-02-22 13:21:00,30.4,17.8,30.06,ENE,62,3.1,3.1,59,0.00,,---,0.00,VWS V14.01,2013-02-22 18:21:00,
2013-02-22 13:26:00,30.7,17.7,30.06,ENE,62,0.0,0.0,58,0.00,,---,0.00,VWS V14.01,2013-02-22 18:26:00,
2013-02-22 13:31:00,31.5,18.8,30.06,SW,222,0.0,4.0,59,0.00,,---,0.00,VWS V14.01,2013-02-22 18:31:00,
2013-02-22 13:36:00,31.6,19.0,30.06,SW,235,3.1,4.0,59,0.00,,---,0.00,VWS V14.01,2013-02-22 18:36:00,
2013-02-22 13:41:00,32.0,18.5,30.06,SW,216,2.7,2.7,57,0.00,,---,0.00,VWS V14.01,2013-02-22 18:41:00,
2013-02-22 13:46:00,32.2,18.3,30.06,SSW,207,2.7,3.6,56,0.00,,---,0.00,VWS V14.01,2013-02-22 18:46:00,
2013-02-22 13:51:00,32.2,18.3,30.06,WSW,250,0.0,0.0,56,0.00,,---,0.00,VWS V14.01,2013-02-22 18:51:00,
2013-02-22 13:56:00,32.5,18.6,30.03,WSW,250,0.0,0.0,56,0.00,,---,0.00,VWS V14.01,2013-02-22 18:56:00,
2013-02-22 14:01:00,32.9,18.9,30.03,SSW,209,2.7,3.6,56,0.00,,---,0.00,VWS V14.01,2013-02-22 19:01:00,
2013-02-22 14:06:00,33.1,18.7,30.03,SSW,203,2.7,4.0,55,0.00,,---,0.00,VWS V14.01,2013-02-22 19:06:00,
2013-02-22 14:11:00,33.3,18.4,30.03,East,86,2.7,2.7,54,0.00,,---,0.00,VWS V14.01,2013-02-22 19:11:00,
2013-02-22 14:16:00,33.4,18.6,30.03,East,83,0.0,0.0,54,0.00,,---,0.00,VWS V14.01,2013-02-22 19:16:00,
2013-02-22 14:22:00,33.6,18.8,30.03,SW,215,4.0,4.0,54,0.00,,---,0.00,VWS V14.01,2013-02-22 19:22:00,
2013-02-22 14:27:00,34.2,18.8,30.03,WNW,286,0.0,0.0,53,0.00,,---,0.00,VWS V14.01,2013-02-22 19:27:00,
2013-02-22 14:32:00,34.3,18.1,30.03,ENE,78,2.2,3.1,51,0.00,,---,0.00,VWS V14.01,2013-02-22 19:32:00,
2013-02-22 14:37:00,34.3,18.1,30.03,SW,219,4.5,5.4,51,0.00,,---,0.00,VWS V14.01,2013-02-22 19:37:00,
2013-02-22 14:42:00,34.2,17.5,30.03,SSW,205,0.0,0.0,50,0.00,,---,0.00,VWS V14.01,2013-02-22 19:42:00,
2013-02-22 14:47:00,34.0,17.3,30.03,SSE,154,0.0,0.0,50,0.00,,---,0.00,VWS V14.01,2013-02-22 19:47:00,
2013-02-22 14:52:00,34.2,17.9,30.03,SW,221,0.0,0.0,51,0.00,,---,0.00,VWS V14.01,2013-02-22 19:52:00,
2013-02-22 14:57:00,34.0,17.3,30.03,SSW,212,2.7,2.7,50,0.00,,---,0.00,VWS V14.01,2013-02-22 19:57:00,
2013-02-22 15:02:00,34.0,17.3,30.03,SW,217,2.7,2.7,50,0.00,,---,0.00,VWS V14.01,2013-02-22 20:02:00,
2013-02-22 15:07:00,34.0,17.3,30.03,WSW,237,3.1,3.1,50,0.00,,---,0.00,VWS V14.01,2013-02-22 20:07:00,
2013-02-22 15:12:00,34.0,17.3,30.03,SW,214,0.0,0.0,50,0.00,,---,0.00,VWS V14.01,2013-02-22 20:12:00,
2013-02-22 15:17:00,34.0,17.8,30.03,SW,236,2.7,2.7,51,0.00,,---,0.00,VWS V14.01,2013-02-22 20:17:00,
2013-02-22 15:22:00,34.0,17.3,30.03,SW,236,2.2,2.7,50,0.00,,---,0.00,VWS V14.01,2013-02-22 20:22:00,
2013-02-22 15:27:00,33.8,17.1,30.03,West,272,0.0,2.7,50,0.00,,---,0.00,VWS V14.01,2013-02-22 20:27:00,
2013-02-22 15:32:00,33.8,17.1,30.03,West,261,3.1,3.1,50,0.00,,---,0.00,VWS V14.01,2013-02-22 20:32:00,
2013-02-22 15:37:00,33.8,17.1,30.03,SW,220,2.7,2.7,50,0.00,,---,0.00,VWS V14.01,2013-02-22 20:37:00,
2013-02-22 15:42:00,33.8,17.1,30.03,SSW,199,2.7,4.0,50,0.00,,---,0.00,VWS V14.01,2013-02-22 20:42:00,
2013-02-22 15:47:00,33.6,17.0,30.03,WNW,297,3.6,3.6,50,0.00,,---,0.00,VWS V14.01,2013-02-22 20:47:00,
2013-02-22 15:52:00,33.4,16.8,30.03,WSW,252,2.7,3.6,50,0.00,,---,0.00,VWS V14.01,2013-02-22 20:52:00,
2013-02-22 15:57:00,33.3,17.1,30.03,WNW,301,0.0,0.0,51,0.00,,---,0.00,VWS V14.01,2013-02-22 20:57:00,
2013-02-22 16:02:00,33.1,16.9,30.03,WNW,290,2.7,2.7,51,0.00,,---,0.00,VWS V14.01,2013-02-22 21:02:00,
2013-02-22 16:07:00,33.1,16.9,30.03,WNW,303,0.0,0.0,51,0.00,,---,0.00,VWS V14.01,2013-02-22 21:07:00,
2013-02-22 16:12:00,33.1,16.9,30.03,NW,307,0.0,0.0,51,0.00,,---,0.00,VWS V14.01,2013-02-22 21:12:00,
2013-02-22 16:17:00,33.1,16.9,30.03,NE,54,0.0,0.0,51,0.00,,---,0.00,VWS V14.01,2013-02-22 21:17:00,
2013-02-22 16:22:00,33.1,16.9,30.03,ENE,71,0.0,0.0,51,0.00,,---,0.00,VWS V14.01,2013-02-22 21:22:00,
2013-02-22 16:27:00,33.1,16.9,30.03,ENE,71,0.0,0.0,51,0.00,,---,0.00,VWS V14.01,2013-02-22 21:27:00,
2013-02-22 16:32:00,33.1,16.9,30.03,North,10,0.0,0.0,51,0.00,,---,0.00,VWS V14.01,2013-02-22 21:32:00,
2013-02-22 16:38:00,33.1,16.9,30.03,North,10,0.0,0.0,51,0.00,,---,0.00,VWS V14.01,2013-02-22 21:38:00,
2013-02-22 16:43:00,33.1,16.9,30.03,North,10,0.0,0.0,51,0.00,,---,0.00,VWS V14.01,2013-02-22 21:43:00,
2013-02-22 16:48:00,33.1,17.4,30.03,North,6,0.0,0.0,52,0.00,,---,0.00,VWS V14.01,2013-02-22 21:48:00,
2013-02-22 16:53:00,33.1,17.4,30.03,SW,234,0.0,0.0,52,0.00,,---,0.00,VWS V14.01,2013-02-22 21:53:00,
2013-02-22 16:58:00,33.1,17.4,30.03,West,265,2.7,4.0,52,0.00,,---,0.00,VWS V14.01,2013-02-22 21:58:00,
2013-02-22 17:03:00,33.1,17.4,30.03,WNW,289,2.2,3.6,52,0.00,,---,0.00,VWS V14.01,2013-02-22 22:03:00,
2013-02-22 17:08:00,33.1,17.4,30.03,West,274,2.2,2.2,52,0.00,,---,0.00,VWS V14.01,2013-02-22 22:08:00,
2013-02-22 17:13:00,33.1,17.4,30.03,West,259,2.7,2.7,52,0.00,,---,0.00,VWS V14.01,2013-02-22 22:13:00,
2013-02-22 17:18:00,32.9,17.2,30.03,West,259,2.2,2.2,52,0.00,,---,0.00,VWS V14.01,2013-02-22 22:18:00,
2013-02-22 17:23:00,32.9,17.2,30.03,West,259,0.0,0.0,52,0.00,,---,0.00,VWS V14.01,2013-02-22 22:23:00,
2013-02-22 17:28:00,32.9,17.2,30.03,WSW,255,3.1,3.6,52,0.00,,---,0.00,VWS V14.01,2013-02-22 22:28:00,
2013-02-22 17:33:00,32.7,17.0,30.03,WNW,283,0.0,0.0,52,0.00,,---,0.00,VWS V14.01,2013-02-22 22:33:00,
2013-02-22 17:38:00,32.7,17.5,30.03,WNW,284,0.0,0.0,53,0.00,,---,0.00,VWS V14.01,2013-02-22 22:38:00,
2013-02-22 17:43:00,32.7,17.5,30.03,WNW,284,0.0,0.0,53,0.00,,---,0.00,VWS V14.01,2013-02-22 22:43:00,
2013-02-22 17:48:00,32.7,17.5,30.03,WNW,283,0.0,0.0,53,0.00,,---,0.00,VWS V14.01,2013-02-22 22:48:00,
2013-02-22 17:53:00,32.7,17.5,30.03,West,277,2.7,3.1,53,0.00,,---,0.00,VWS V14.01,2013-02-22 22:53:00,
2013-02-22 17:58:00,32.7,17.9,30.01,WSW,243,3.6,4.0,54,0.00,,---,0.00,VWS V14.01,2013-02-22 22:58:00,
2013-02-22 18:03:00,32.5,17.8,30.01,West,273,2.7,2.7,54,0.00,,---,0.00,VWS V14.01,2013-02-22 23:03:00,
2013-02-22 18:08:00,32.5,17.8,30.01,WNW,291,2.2,2.2,54,0.00,,---,0.00,VWS V14.01,2013-02-22 23:08:00,
2013-02-22 18:13:00,32.5,17.8,30.01,WNW,289,2.7,2.7,54,0.00,,---,0.00,VWS V14.01,2013-02-22 23:13:00,
2013-02-22 18:18:00,32.4,17.6,30.01,NE,40,0.0,0.0,54,0.00,,---,0.00,VWS V14.01,2013-02-22 23:18:00,
2013-02-22 18:23:00,32.4,17.6,30.01,NE,40,0.0,0.0,54,0.00,,---,0.00,VWS V14.01,2013-02-22 23:23:00,
2013-02-22 18:28:00,32.4,17.6,30.01,NE,40,0.0,0.0,54,0.00,,---,0.00,VWS V14.01,2013-02-22 23:28:00,
2013-02-22 18:33:00,32.4,17.6,30.01,West,274,0.0,3.1,54,0.00,,---,0.00,VWS V14.01,2013-02-22 23:33:00,
2013-02-22 18:39:00,32.2,17.4,30.01,West,274,0.0,0.0,54,0.00,,---,0.00,VWS V14.01,2013-02-22 23:39:00,
2013-02-22 18:44:00,32.2,17.4,30.01,West,274,0.0,0.0,54,0.00,,---,0.00,VWS V14.01,2013-02-22 23:44:00,
2013-02-22 18:52:00,32.2,17.4,30.01,West,274,0.0,0.0,54,0.00,,---,0.00,VWS V14.01,2013-02-22 23:52:00,
2013-02-22 19:04:00,32.2,17.8,30.01,WNW,288,0.0,0.0,55,0.00,,---,0.00,VWS V14.01,2013-02-23 00:04:00,
2013-02-22 19:09:00,32.2,17.8,30.01,WNW,288,0.0,0.0,55,0.00,,---,0.00,VWS V14.01,2013-02-23 00:09:00,
2013-02-22 19:14:00,32.2,17.8,30.01,WNW,288,0.0,0.0,55,0.00,,---,0.00,VWS V14.01,2013-02-23 00:14:00,
2013-02-22 19:19:00,32.2,17.8,30.01,WNW,288,0.0,0.0,55,0.00,,---,0.00,VWS V14.01,2013-02-23 00:19:00,
2013-02-22 19:24:00,32.0,17.7,30.01,WNW,288,0.0,0.0,55,0.00,,---,0.00,VWS V14.01,2013-02-23 00:24:00,
2013-02-22 19:29:00,32.0,17.7,30.01,WNW,288,0.0,0.0,55,0.00,,---,0.00,VWS V14.01,2013-02-23 00:29:00,
2013-02-22 19:34:00,31.8,17.5,30.01,WNW,288,0.0,0.0,55,0.00,,---,0.00,VWS V14.01,2013-02-23 00:34:00,
2013-02-22 19:39:00,31.6,17.3,30.01,WNW,288,0.0,0.0,55,0.00,,---,0.00,VWS V14.01,2013-02-23 00:39:00,
2013-02-22 19:44:00,31.6,17.3,30.01,WNW,288,0.0,0.0,55,0.00,,---,0.00,VWS V14.01,2013-02-23 00:44:00,
2013-02-22 19:49:00,31.5,17.2,30.01,ENE,78,0.0,0.0,55,0.00,,---,0.00,VWS V14.01,2013-02-23 00:49:00,
2013-02-22 19:54:00,31.5,17.2,30.01,ENE,78,0.0,0.0,55,0.00,,---,0.00,VWS V14.01,2013-02-23 00:54:00,
2013-02-22 19:59:00,31.3,17.0,30.01,ENE,78,0.0,0.0,55,0.00,,---,0.00,VWS V14.01,2013-02-23 00:59:00,
2013-02-22 20:04:00,31.3,17.0,30.01,ENE,78,0.0,0.0,55,0.00,,---,0.00,VWS V14.01,2013-02-23 01:04:00,
2013-02-22 20:09:00,31.1,17.2,30.01,East,82,0.0,0.0,56,0.00,,---,0.00,VWS V14.01,2013-02-23 01:09:00,
2013-02-22 20:14:00,31.1,17.2,30.01,East,83,0.0,0.0,56,0.00,,---,0.00,VWS V14.01,2013-02-23 01:14:00,
2013-02-22 20:19:00,31.1,17.2,30.01,East,83,0.0,0.0,56,0.00,,---,0.00,VWS V14.01,2013-02-23 01:19:00,
2013-02-22 20:24:00,31.1,17.2,30.01,East,83,0.0,0.0,56,0.00,,---,0.00,VWS V14.01,2013-02-23 01:24:00,
2013-02-22 20:29:00,31.1,17.2,30.01,East,83,0.0,0.0,56,0.00,,---,0.00,VWS V14.01,2013-02-23 01:29:00,
2013-02-22 20:34:00,31.1,17.2,30.01,East,83,0.0,0.0,56,0.00,,---,0.00,VWS V14.01,2013-02-23 01:34:00,
2013-02-22 20:39:00,31.1,17.2,30.01,East,83,0.0,0.0,56,0.00,,---,0.00,VWS V14.01,2013-02-23 01:39:00,
2013-02-22 20:44:00,31.1,17.7,30.01,East,83,0.0,0.0,57,0.00,,---,0.00,VWS V14.01,2013-02-23 01:44:00,
2013-02-22 20:49:00,31.1,17.7,30.01,East,83,0.0,0.0,57,0.00,,---,0.00,VWS V14.01,2013-02-23 01:49:00,
2013-02-22 20:54:00,31.1,17.7,30.01,East,83,0.0,0.0,57,0.00,,---,0.00,VWS V14.01,2013-02-23 01:54:00,
2013-02-22 20:59:00,31.1,17.7,30.01,East,83,0.0,0.0,57,0.00,,---,0.00,VWS V14.01,2013-02-23 01:59:00,
2013-02-22 21:04:00,31.1,17.7,30.01,East,83,0.0,0.0,57,0.00,,---,0.00,VWS V14.01,2013-02-23 02:04:00,
2013-02-22 21:09:00,30.9,17.5,30.01,East,83,0.0,0.0,57,0.00,,---,0.00,VWS V14.01,2013-02-23 02:09:00,
2013-02-22 21:15:00,30.9,17.5,30.01,East,83,0.0,0.0,57,0.00,,---,0.00,VWS V14.01,2013-02-23 02:15:00,
2013-02-22 21:20:00,30.9,17.5,30.01,North,357,0.0,0.0,57,0.00,,---,0.00,VWS V14.01,2013-02-23 02:20:00,
2013-02-22 21:25:00,30.7,17.3,30.01,North,357,0.0,0.0,57,0.00,,---,0.00,VWS V14.01,2013-02-23 02:25:00,
2013-02-22 21:30:00,30.9,17.5,30.01,North,357,0.0,0.0,57,0.00,,---,0.00,VWS V14.01,2013-02-23 02:30:00,
2013-02-22 21:35:00,30.9,17.5,30.01,North,357,0.0,0.0,57,0.00,,---,0.00,VWS V14.01,2013-02-23 02:35:00,
2013-02-22 21:40:00,31.1,18.1,30.01,North,357,0.0,0.0,58,0.00,,---,0.00,VWS V14.01,2013-02-23 02:40:00,
2013-02-22 21:45:00,30.9,17.9,30.01,NE,53,2.7,2.7,58,0.00,,---,0.00,VWS V14.01,2013-02-23 02:45:00,
2013-02-22 21:50:00,30.9,17.9,30.01,NE,53,0.0,0.0,58,0.00,,---,0.00,VWS V14.01,2013-02-23 02:50:00,
2013-02-22 21:55:00,30.9,17.5,30.01,NE,53,0.0,0.0,57,0.00,,---,0.00,VWS V14.01,2013-02-23 02:55:00,
2013-02-22 22:00:00,30.9,17.9,30.01,NE,53,0.0,0.0,58,0.00,,---,0.00,VWS V14.01,2013-02-23 03:00:00,
2013-02-22 22:05:00,30.9,17.9,30.01,NE,53,0.0,0.0,58,0.00,,---,0.00,VWS V14.01,2013-02-23 03:05:00,
2013-02-22 22:10:00,30.9,17.9,30.01,NE,53,0.0,0.0,58,0.00,,---,0.00,VWS V14.01,2013-02-23 03:10:00,
2013-02-22 22:15:00,30.9,17.9,30.01,NE,53,0.0,0.0,58,0.00,,---,0.00,VWS V14.01,2013-02-23 03:15:00,
2013-02-22 22:20:00,30.9,17.9,30.01,NE,53,0.0,0.0,58,0.00,,---,0.00,VWS V14.01,2013-02-23 03:20:00,
2013-02-22 22:26:00,30.9,17.9,30.01,NE,53,0.0,0.0,58,0.00,,---,0.00,VWS V14.01,2013-02-23 03:26:00,
2013-02-22 22:31:00,30.9,17.9,30.01,NE,53,0.0,0.0,58,0.00,,---,0.00,VWS V14.01,2013-02-23 03:31:00,
2013-02-22 22:36:00,30.9,17.9,30.01,NE,54,0.0,0.0,58,0.00,,---,0.00,VWS V14.01,2013-02-23 03:36:00,
2013-02-22 22:41:00,30.9,18.3,30.01,NE,53,0.0,0.0,59,0.00,,---,0.00,VWS V14.01,2013-02-23 03:41:00,
2013-02-22 22:46:00,30.9,18.3,30.01,NE,53,0.0,0.0,59,0.00,,---,0.00,VWS V14.01,2013-02-23 03:46:00,
2013-02-22 22:51:00,30.9,18.3,30.01,NE,53,0.0,0.0,59,0.00,,---,0.00,VWS V14.01,2013-02-23 03:51:00,
2013-02-22 22:56:00,30.9,18.3,30.01,NE,54,0.0,0.0,59,0.00,,---,0.00,VWS V14.01,2013-02-23 03:56:00,
2013-02-22 23:01:00,30.9,18.3,30.01,NE,53,0.0,0.0,59,0.00,,---,0.00,VWS V14.01,2013-02-23 04:01:00,
2013-02-22 23:06:00,30.9,18.3,30.01,West,270,0.0,0.0,59,0.00,,---,0.00,VWS V14.01,2013-02-23 04:06:00,
2013-02-22 23:11:00,31.1,18.9,30.01,West,279,0.0,0.0,60,0.00,,---,0.00,VWS V14.01,2013-02-23 04:11:00,
2013-02-22 23:16:00,31.1,18.9,30.01,West,279,0.0,0.0,60,0.00,,---,0.00,VWS V14.01,2013-02-23 04:16:00,
2013-02-22 23:21:00,31.1,18.9,30.01,NE,36,0.0,0.0,60,0.00,,---,0.00,VWS V14.01,2013-02-23 04:21:00,
2013-02-22 23:26:00,31.1,18.5,30.01,NE,36,0.0,0.0,59,0.00,,---,0.00,VWS V14.01,2013-02-23 04:26:00,
2013-02-22 23:31:00,31.1,18.5,30.01,NE,36,0.0,0.0,59,0.00,,---,0.00,VWS V14.01,2013-02-23 04:31:00,
2013-02-22 23:36:00,30.9,18.7,30.01,NE,36,0.0,0.0,60,0.00,,---,0.00,VWS V14.01,2013-02-23 04:36:00,
2013-02-22 23:41:00,30.9,18.3,30.01,NE,36,0.0,0.0,59,0.00,,---,0.00,VWS V14.01,2013-02-23 04:41:00,
2013-02-22 23:46:00,30.9,18.3,30.01,NE,36,0.0,0.0,59,0.00,,---,0.00,VWS V14.01,2013-02-23 04:46:00,
2013-02-22 23:51:00,30.9,18.7,30.01,NE,36,0.0,0.0,60,0.00,,---,0.00,VWS V14.01,2013-02-23 04:51:00,
2013-02-22 23:56:00,30.9,18.7,29.98,NE,36,0.0,0.0,60,0.00,,---,0.00,VWS V14.01,2013-02-23 04:56:00,